Location: Caltech
(34.1382°N, 118.1253°W)
Time: 16:49:39
(UTC-07:00)

OPAL - Visible Passes

Search period start: 16 October 2017 00:00
Search period end: 26 October 2017 00:00
Orbit: 744 x 795 km, 100.2° (Epoch: 16 October)

Date Brightness Start Highest point End Pass type
(mag) Time Alt. Az. Time Alt. Az. Time Alt. Az.
16 Oct 7.5 19:22:12 10° SSE 19:27:05 56° ENE 19:32:03 10° N visible
16 Oct 10.4 21:03:50 10° WSW 21:06:15 13° W 21:08:40 10° WNW visible
17 Oct 8.5 18:47:49 10° ESE 18:51:50 25° ENE 18:55:54 10° NNE visible
17 Oct 9.1 20:26:03 10° SSW 20:30:30 32° W 20:35:02 10° NW visible
18 Oct 7.5 19:49:56 10° SSE 19:54:56 78° WSW 20:00:02 10° NNW visible
19 Oct 7.8 19:14:48 10° SE 19:19:33 44° ENE 19:24:23 10° N visible
19 Oct 10.1 20:55:18 10° SW 20:58:35 17° W 21:01:55 10° NW visible
20 Oct 8.8 18:40:46 10° ESE 18:44:22 20° ENE 18:48:01 10° NNE visible
20 Oct 8.7 20:18:10 10° S 20:22:53 41° W 20:27:42 10° NNW visible
21 Oct 7.4 19:42:21 10° SSE 19:47:22 83° ENE 19:52:30 10° NNW visible
22 Oct 8.0 19:07:29 10° SE 19:12:03 35° ENE 19:16:41 10° N visible
22 Oct 9.7 20:47:04 10° SSW 20:50:56 22° W 20:54:52 10° NW visible
23 Oct 9.0 18:33:52 10° E 18:36:55 16° ENE 18:39:59 10° NNE visible
23 Oct 8.2 20:10:23 10° S 20:15:17 53° WSW 20:20:18 10° NNW visible
24 Oct 7.4 19:34:50 10° SSE 19:39:49 66° ENE 19:44:55 10° N visible
24 Oct 10.4 21:17:26 10° WSW 21:19:05 11° W 21:20:44 10° WNW visible
25 Oct 8.3 19:00:16 10° SE 19:04:34 29° ENE 19:08:56 10° N visible
25 Oct 9.3 20:39:00 10° SSW 20:43:18 28° W 20:47:41 10° NW visible
